Sara — LK8594 — position and weather

sailwx.info

Track history (hours):
 
Tides and Currents Weather Stations Pressure Air Temp Water Temp Dewpoint Dewpoint Depression Visibility Wind Speed Wind Dir Waves Ship Positions

Sara

Last reported at 2017-Oct-20 02:01 UTC. Time now 2017-Oct-20 14:33 UTC.
Position N 70°03' E 020°31'.

Length 11 m.

Type: Fishing. MMSI: 257182840.

Date/timePositionNaut miles runAvg speedWind from/ knotsBaromVisibWave heightAir tempDewpointWater temp
2017-Oct-20 02:01N 70°03' E 020°31'0 5.2
2017-Oct-20 02:00N 70°03' E 020°31'1 1.1
2017-Oct-20 01:28N 70°04' E 020°30'0 0.0
2017-Oct-20 00:58N 70°04' E 020°30'0 0.0
2017-Oct-20 00:28N 70°04' E 020°30'0 0.0
2017-Oct-19 23:55N 70°04' E 020°30'0 0.0
2017-Oct-19 23:28N 70°04' E 020°30'0 0.0
2017-Oct-19 22:58N 70°04' E 020°30'0 0.0
2017-Oct-19 22:28N 70°04' E 020°30'0 0.0
2017-Oct-19 21:58N 70°04' E 020°30'0 0.0
2017-Oct-19 21:28N 70°04' E 020°30'0 0.0
2017-Oct-19 20:58N 70°04' E 020°30'0 0.0
2017-Oct-19 20:28N 70°04' E 020°30'0 0.0
2017-Oct-19 19:55N 70°04' E 020°30'0 0.0
2017-Oct-19 19:28N 70°04' E 020°30'0 0.0
2017-Oct-19 18:58N 70°04' E 020°30'0 0.0
2017-Oct-19 18:28N 70°04' E 020°30'0 0.0
2017-Oct-19 17:58N 70°04' E 020°30'0 0.0
2017-Oct-19 17:28N 70°04' E 020°30'0 0.0
2017-Oct-19 16:58N 70°04' E 020°30'0 0.0
2017-Oct-19 16:28N 70°04' E 020°30'0 0.0
2017-Oct-19 15:58N 70°04' E 020°30'0 0.0
2017-Oct-19 15:28N 70°04' E 020°30'0 0.0
2017-Oct-19 14:58N 70°04' E 020°30'0 0.0
2017-Oct-19 14:28N 70°04' E 020°30'0 0.0
2017-Oct-19 13:58N 70°04' E 020°30'0 0.0
2017-Oct-19 13:28N 70°04' E 020°30'0 0.0
2017-Oct-19 12:58N 70°04' E 020°30'0 0.0
2017-Oct-19 12:28N 70°04' E 020°30'0 0.0
2017-Oct-19 11:58N 70°04' E 020°30'0 0.0
2017-Oct-19 11:28N 70°04' E 020°30'0 0.0
2017-Oct-19 10:58N 70°04' E 020°30'0 0.0
2017-Oct-19 10:28N 70°04' E 020°30'0 0.0
2017-Oct-19 09:58N 70°04' E 020°30'0 0.0
2017-Oct-19 09:28N 70°04' E 020°30'0 0.0
2017-Oct-19 08:58N 70°04' E 020°30'0 0.0
2017-Oct-19 08:28N 70°04' E 020°30'0 0.0
2017-Oct-19 07:58N 70°04' E 020°30'0 0.0
2017-Oct-19 07:28N 70°04' E 020°30'0 0.0
2017-Oct-19 06:59N 70°04' E 020°30'0 0.0
2017-Oct-19 06:28N 70°04' E 020°30'0 0.0
2017-Oct-19 05:58N 70°04' E 020°30'0 0.0
2017-Oct-19 05:28N 70°04' E 020°30'0 0.0
2017-Oct-19 04:58N 70°04' E 020°30'0 0.0
2017-Oct-19 04:28N 70°04' E 020°30'0 0.0
2017-Oct-19 03:58N 70°04' E 020°30'0 0.0
2017-Oct-19 03:28N 70°04' E 020°30'0 0.0
2017-Oct-19 02:58N 70°04' E 020°30'0 0.0
2017-Oct-19 02:28N 70°04' E 020°30'0 0.0
2017-Oct-19 01:58N 70°04' E 020°30'0 0.0
2017-Oct-19 01:28N 70°04' E 020°30'0 0.0
2017-Oct-19 00:58N 70°04' E 020°30'0 0.0
2017-Oct-19 00:28N 70°04' E 020°30'0 0.0
2017-Oct-18 23:58N 70°04' E 020°30'0 0.0
2017-Oct-18 23:28N 70°04' E 020°30'0 0.0
2017-Oct-18 22:58N 70°04' E 020°30'0 0.0
2017-Oct-18 22:28N 70°04' E 020°30'0 0.0
2017-Oct-18 21:58N 70°04' E 020°30'0 0.0
2017-Oct-18 21:28N 70°04' E 020°30'0 0.0
2017-Oct-18 20:58N 70°04' E 020°30'0 0.0
2017-Oct-18 20:28N 70°04' E 020°30'0 0.0
2017-Oct-18 19:55N 70°04' E 020°30'0 0.0
2017-Oct-18 19:28N 70°04' E 020°30'0 0.0
2017-Oct-18 18:58N 70°04' E 020°30'0 0.0
2017-Oct-18 18:28N 70°04' E 020°30'2 3.5
2017-Oct-18 17:59N 70°02' E 020°31'3 6.7
2017-Oct-18 17:30N 70°02' E 020°41'4 8.5
2017-Oct-18 17:00N 70°04' E 020°52'5 8.5
2017-Oct-18 16:26N 70°08' E 020°59'4 8.0
2017-Oct-18 15:59N 70°11' E 021°04'4 8.0
2017-Oct-18 15:27N 70°15' E 021°11'4 8.0
2017-Oct-18 14:59N 70°17' E 021°20'8 8.1
2017-Oct-18 14:00N 70°22' E 021°37'3 6.7
2017-Oct-18 13:29N 70°23' E 021°47'4 7.7
2017-Oct-18 13:00N 70°22' E 021°57'4 8.3
2017-Oct-18 12:30N 70°19' E 022°07'4 8.2
2017-Oct-18 12:00N 70°17' E 022°17'3 6.5
2017-Oct-18 11:28N 70°14' E 022°21'0 0.0
2017-Oct-18 10:58N 70°14' E 022°21'0 0.0
2017-Oct-18 10:28N 70°14' E 022°21'0 0.0
2017-Oct-18 10:00N 70°14' E 022°21'0 0.1
2017-Oct-18 08:42N 70°14' E 022°21'0 0.0
2017-Oct-18 01:12N 70°14' E 022°21'0 0.0
2017-Oct-17 20:48N 70°14' E 022°21'0 0.2
2017-Oct-17 20:29N 70°14' E 022°21'0 0.0
2017-Oct-17 16:57N 70°14' E 022°21'0 0.0
2017-Oct-17 16:18N 70°14' E 022°21'0 0.0
2017-Oct-17 15:04N 70°14' E 022°21'0 0.3
2017-Oct-17 14:57N 70°14' E 022°21'0 0.0
2017-Oct-17 12:59N 70°14' E 022°21'0 0.0
2017-Oct-17 11:00N 70°14' E 022°21'0 0.0
2017-Oct-17 10:30N 70°14' E 022°21'0 0.0
2017-Oct-17 10:00N 70°14' E 022°21'0 0.2
2017-Oct-17 09:28N 70°14' E 022°21'0 0.0
2017-Oct-17 08:58N 70°14' E 022°21'0 0.0
2017-Oct-17 08:28N 70°14' E 022°21'0 0.0
2017-Oct-17 07:58N 70°14' E 022°21'0 0.0
2017-Oct-17 07:29N 70°14' E 022°21'0 0.0
2017-Oct-17 06:58N 70°14' E 022°21'1 2.6
2017-Oct-17 06:30N 70°15' E 022°19'4 7.3
2017-Oct-17 06:00N 70°18' E 022°14'4 7.9
2017-Oct-17 05:29N 70°20' E 022°04'4 8.1
2017-Oct-17 05:00N 70°22' E 021°53'4 7.8
2017-Oct-17 04:30N 70°24' E 021°43'4 7.1
2017-Oct-17 04:00N 70°22' E 021°35'4 7.6
2017-Oct-17 03:30N 70°19' E 021°27'10 7.7
2017-Oct-17 02:08N 70°11' E 021°05'3 8.2
2017-Oct-17 01:50N 70°09' E 021°02'3 8.3
2017-Oct-17 01:26N 70°06' E 020°58'4 8.2
2017-Oct-17 01:00N 70°03' E 020°52'4 8.8
2017-Oct-17 00:30N 70°02' E 020°40'3 6.7
2017-Oct-17 00:00N 70°03' E 020°31'1 1.8
2017-Oct-16 23:28N 70°04' E 020°30'0 0.0
2017-Oct-16 22:58N 70°04' E 020°30'0 0.0
2017-Oct-16 22:28N 70°04' E 020°30'0 0.0
2017-Oct-16 21:58N 70°04' E 020°30'0 0.0
2017-Oct-16 21:28N 70°04' E 020°30'0 0.0
2017-Oct-16 20:58N 70°04' E 020°30'0 0.0
2017-Oct-16 20:28N 70°04' E 020°30'0 0.0
2017-Oct-16 19:58N 70°04' E 020°30'0 0.0
2017-Oct-16 19:28N 70°04' E 020°30'0 0.0
2017-Oct-16 18:58N 70°04' E 020°30'0 0.0
2017-Oct-16 18:28N 70°04' E 020°30'0 0.0
2017-Oct-16 17:58N 70°04' E 020°30'0 0.0
2017-Oct-16 17:28N 70°04' E 020°30'0 0.0
2017-Oct-16 16:58N 70°04' E 020°30'0 0.0
2017-Oct-16 16:28N 70°04' E 020°30'0 0.0
2017-Oct-16 15:58N 70°04' E 020°30'0 0.0
2017-Oct-16 15:28N 70°04' E 020°30'0 0.0
2017-Oct-16 14:58N 70°04' E 020°30'0 0.0
2017-Oct-16 13:58N 70°04' E 020°30'0 0.0
2017-Oct-16 13:28N 70°04' E 020°30'0 0.0
2017-Oct-16 12:58N 70°04' E 020°30'0 0.0
2017-Oct-16 12:28N 70°04' E 020°30'0 0.0
2017-Oct-16 11:58N 70°04' E 020°30'0 0.0
2017-Oct-16 11:28N 70°04' E 020°30'0 0.0
2017-Oct-16 10:59N 70°04' E 020°30'0 0.0
2017-Oct-16 10:28N 70°04' E 020°30'0 0.0
2017-Oct-16 09:58N 70°04' E 020°30'0 0.0
2017-Oct-16 09:29N 70°04' E 020°30'0 0.0
2017-Oct-16 08:58N 70°04' E 020°30'0 0.0
2017-Oct-16 08:28N 70°04' E 020°30'0 0.0
2017-Oct-16 07:58N 70°04' E 020°30'0 0.0
2017-Oct-16 07:29N 70°04' E 020°30'0 0.0
2017-Oct-16 06:59N 70°04' E 020°30'0 0.0
2017-Oct-16 06:29N 70°04' E 020°30'0 0.0
2017-Oct-16 05:59N 70°04' E 020°30'0 0.0
2017-Oct-16 05:29N 70°04' E 020°30'0 0.0
2017-Oct-16 04:59N 70°04' E 020°30'0 0.0
2017-Oct-16 04:29N 70°04' E 020°30'0 0.0
2017-Oct-16 03:59N 70°04' E 020°30'0 0.0
2017-Oct-16 03:29N 70°04' E 020°30'0 0.0
2017-Oct-16 02:59N 70°04' E 020°30'0 0.0
2017-Oct-16 02:29N 70°04' E 020°30'0 0.0
2017-Oct-16 01:59N 70°04' E 020°30'0 0.0
2017-Oct-16 01:26N 70°04' E 020°30'0 0.0
2017-Oct-16 00:59N 70°04' E 020°30'0 0.0
2017-Oct-16 00:29N 70°04' E 020°30'0 0.0
2017-Oct-15 23:59N 70°04' E 020°30'0 0.0
2017-Oct-15 23:29N 70°04' E 020°30'0 0.0
2017-Oct-15 22:59N 70°04' E 020°30'0 0.0
2017-Oct-15 22:29N 70°04' E 020°30'0 0.0
2017-Oct-15 21:59N 70°04' E 020°30'0 0.0
2017-Oct-15 21:29N 70°04' E 020°30'0 0.0
2017-Oct-15 20:59N 70°04' E 020°30'0 0.0
2017-Oct-15 20:29N 70°04' E 020°30'0 0.0
2017-Oct-15 19:59N 70°04' E 020°30'0 0.0
2017-Oct-15 19:29N 70°04' E 020°30'0 0.0
2017-Oct-15 18:59N 70°04' E 020°30'0 0.0
2017-Oct-15 18:29N 70°04' E 020°30'0 0.0
2017-Oct-15 17:59N 70°04' E 020°30'0 0.0
2017-Oct-15 17:29N 70°04' E 020°30'0 0.0
2017-Oct-15 16:59N 70°04' E 020°30'0 0.0
2017-Oct-15 16:29N 70°04' E 020°30'0 0.0
2017-Oct-15 15:59N 70°04' E 020°30'0 0.0
2017-Oct-15 15:29N 70°04' E 020°30'0 0.0
2017-Oct-15 14:59N 70°04' E 020°30'0 0.0
2017-Oct-15 13:59N 70°04' E 020°30'0 0.0
2017-Oct-15 13:26N 70°04' E 020°30'0 0.0
2017-Oct-15 12:59N 70°04' E 020°30'0 0.0
2017-Oct-15 12:29N 70°04' E 020°30'0 0.0
2017-Oct-15 11:59N 70°04' E 020°30'0 0.0
2017-Oct-15 11:29N 70°04' E 020°30'0 0.0
2017-Oct-15 10:59N 70°04' E 020°30'0 0.0
2017-Oct-15 10:29N 70°04' E 020°30'0 0.0
2017-Oct-15 09:59N 70°04' E 020°30'0 0.0
2017-Oct-15 09:29N 70°04' E 020°30'0 0.0
2017-Oct-15 08:59N 70°04' E 020°30'0 0.0
2017-Oct-15 08:29N 70°04' E 020°30'0 0.0
2017-Oct-15 07:59N 70°04' E 020°30'0 0.0
2017-Oct-15 07:29N 70°04' E 020°30'0 0.0
2017-Oct-15 06:59N 70°04' E 020°30'0 0.0
2017-Oct-15 06:29N 70°04' E 020°30'0 0.0
2017-Oct-15 05:59N 70°04' E 020°30'0 0.0
2017-Oct-15 05:26N 70°04' E 020°30'0 0.0
2017-Oct-15 04:59N 70°04' E 020°30'0 0.0
2017-Oct-15 04:29N 70°04' E 020°30'0 0.0
2017-Oct-15 03:56N 70°04' E 020°30'0 0.0
2017-Oct-15 03:29N 70°04' E 020°30'0 0.0
2017-Oct-15 02:59N 70°04' E 020°30'0 0.0
2017-Oct-15 02:26N 70°04' E 020°30'0 0.0
2017-Oct-15 01:59N 70°04' E 020°30'0 0.0
2017-Oct-15 01:29N 70°04' E 020°30'0 0.0
2017-Oct-15 00:59N 70°04' E 020°30'0 0.0
2017-Oct-15 00:29N 70°04' E 020°30'0 0.0
2017-Oct-14 23:59N 70°04' E 020°30'0 0.0
2017-Oct-14 23:29N 70°04' E 020°30'0 0.0
2017-Oct-14 22:59N 70°04' E 020°30'0 0.0
2017-Oct-14 22:26N 70°04' E 020°30'0 0.0
2017-Oct-14 21:59N 70°04' E 020°30'0 0.0
2017-Oct-14 21:29N 70°04' E 020°30'0 0.0
2017-Oct-14 20:59N 70°04' E 020°30'0 0.0
2017-Oct-14 20:29N 70°04' E 020°30'0 0.0
2017-Oct-14 19:59N 70°04' E 020°30'0 0.0
2017-Oct-14 19:29N 70°04' E 020°30'0 0.0
2017-Oct-14 18:59N 70°04' E 020°30'0 0.0
2017-Oct-14 18:29N 70°04' E 020°30'0 0.0
2017-Oct-14 17:56N 70°04' E 020°30'0 0.0
2017-Oct-14 17:29N 70°04' E 020°30'0 0.0
2017-Oct-14 16:59N 70°04' E 020°30'0 0.0
2017-Oct-14 16:29N 70°04' E 020°30'0 0.0
2017-Oct-14 15:59N 70°04' E 020°30'0 0.0
2017-Oct-14 15:29N 70°04' E 020°30'0 0.0
2017-Oct-14 14:59N 70°04' E 020°30'0 0.0
2017-Oct-14 14:29N 70°04' E 020°30'0 0.0
2017-Oct-14 13:59N 70°04' E 020°30'0 0.0
2017-Oct-14 13:29N 70°04' E 020°30'0 0.0
2017-Oct-14 12:59N 70°04' E 020°30'0 0.0
2017-Oct-14 12:29N 70°04' E 020°30'0 0.0
2017-Oct-14 11:59N 70°04' E 020°30'0 0.0
2017-Oct-14 11:29N 70°04' E 020°30'0 0.0
2017-Oct-14 10:59N 70°04' E 020°30'0 0.0
2017-Oct-14 10:29N 70°04' E 020°30'0 0.0
2017-Oct-14 09:59N 70°04' E 020°30'0 0.0
2017-Oct-14 09:29N 70°04' E 020°30'0 0.0
2017-Oct-14 08:59N 70°04' E 020°30'0 0.0
2017-Oct-14 08:29N 70°04' E 020°30'0 0.0
2017-Oct-14 07:59N 70°04' E 020°30'0 0.0
2017-Oct-14 07:29N 70°04' E 020°30'0 0.0
2017-Oct-14 06:59N 70°04' E 020°30'0 0.0
2017-Oct-14 06:29N 70°04' E 020°30'0 0.0
2017-Oct-14 05:59N 70°04' E 020°30'0 0.0
2017-Oct-14 05:29N 70°04' E 020°30'0 0.0
2017-Oct-14 04:59N 70°04' E 020°30'0 0.0
2017-Oct-14 04:29N 70°04' E 020°30'0 0.0
2017-Oct-14 03:59N 70°04' E 020°30'0 0.0
2017-Oct-14 03:29N 70°04' E 020°30'0 0.0
2017-Oct-14 02:59N 70°04' E 020°30'0 0.0
2017-Oct-14 02:26N 70°04' E 020°30'0 0.0
2017-Oct-14 01:59N 70°04' E 020°30'0 0.0
2017-Oct-14 01:29N 70°04' E 020°30'0 0.0
2017-Oct-14 00:59N 70°04' E 020°30'0 0.0
2017-Oct-14 00:29N 70°04' E 020°30'0 0.0
2017-Oct-13 23:59N 70°04' E 020°30'0 0.0
2017-Oct-13 23:29N 70°04' E 020°30'0 0.0
2017-Oct-13 22:59N 70°04' E 020°30'0 0.0
2017-Oct-13 22:29N 70°04' E 020°30'0 0.0
2017-Oct-13 21:59N 70°04' E 020°30'0 0.0
2017-Oct-13 21:29N 70°04' E 020°30'0 0.0
2017-Oct-13 20:59N 70°04' E 020°30'0 0.0
2017-Oct-13 20:29N 70°04' E 020°30'0 0.0
2017-Oct-13 19:59N 70°04' E 020°30'0 0.0
2017-Oct-13 19:29N 70°04' E 020°30'0 0.0
2017-Oct-13 18:59N 70°04' E 020°30'0 0.0
2017-Oct-13 18:29N 70°04' E 020°30'0 0.0
2017-Oct-13 17:59N 70°04' E 020°30'0 0.0
2017-Oct-13 17:29N 70°04' E 020°30'0 0.0
2017-Oct-13 16:59N 70°04' E 020°30'0 0.0
2017-Oct-13 16:29N 70°04' E 020°30'0 0.0
2017-Oct-13 15:59N 70°04' E 020°30'0 0.0
2017-Oct-13 15:26N 70°04' E 020°30'0 0.0
2017-Oct-13 14:59N 70°04' E 020°30'0 0.0
2017-Oct-13 14:29N 70°04' E 020°30'0 0.0
2017-Oct-13 13:59N 70°04' E 020°30'0 0.0
2017-Oct-13 13:29N 70°04' E 020°30'0 0.0
2017-Oct-13 12:59N 70°04' E 020°30'0 0.0
2017-Oct-13 12:29N 70°04' E 020°30'0 0.0
2017-Oct-13 11:59N 70°04' E 020°30'0 0.0
2017-Oct-13 11:29N 70°04' E 020°30'0 0.0
2017-Oct-13 10:59N 70°04' E 020°30'0 0.0
2017-Oct-13 10:29N 70°04' E 020°30'0 0.0
2017-Oct-13 09:59N 70°04' E 020°30'0 0.0
2017-Oct-13 09:26N 70°04' E 020°30'0 0.0
2017-Oct-13 08:56N 70°04' E 020°30'0 0.0
2017-Oct-13 08:29N 70°04' E 020°30'0 0.0
2017-Oct-13 07:59N 70°04' E 020°30'0 0.0
2017-Oct-12 16:24N 70°04' E 020°30'0 0.0
2017-Oct-12 15:59N 70°04' E 020°30'0 0.0
2017-Oct-12 15:29N 70°04' E 020°30'0 0.0
2017-Oct-12 14:59N 70°04' E 020°30'0 0.0
2017-Oct-12 14:29N 70°04' E 020°30'0 0.0
2017-Oct-12 13:59N 70°04' E 020°30'0 0.0
2017-Oct-12 13:29N 70°04' E 020°30'0 0.0
2017-Oct-12 12:59N 70°04' E 020°30'0 0.0
2017-Oct-12 12:29N 70°04' E 020°30'0 0.0
2017-Oct-12 11:59N 70°04' E 020°30'0 0.0
2017-Oct-12 11:29N 70°04' E 020°30'0 0.0
2017-Oct-12 10:59N 70°04' E 020°30'0 0.0
2017-Oct-12 10:29N 70°04' E 020°30'0 0.0
2017-Oct-12 10:00N 70°04' E 020°30'3 5.2
2017-Oct-12 09:29N 70°02' E 020°24'4 7.3
2017-Oct-12 09:00N 70°02' E 020°13'4 7.3
2017-Oct-12 08:30N 70°04' E 020°04'2 2.8
2017-Oct-12 07:58N 70°04' E 019°60'0 0.0
2017-Oct-12 07:28N 70°04' E 019°60'0 0.0
2017-Oct-12 06:58N 70°04' E 019°60'1 1.3
2017-Oct-12 06:30N 70°04' E 020°01'4 8.0
2017-Oct-12 06:00N 70°03' E 020°13'4 7.9
2017-Oct-12 05:30N 70°02' E 020°24'2 4.9
2017-Oct-12 05:00N 70°04' E 020°30'0 0.5
2017-Oct-12 04:29N 70°04' E 020°30'0 0.0
2017-Oct-12 03:59N 70°04' E 020°30'0 0.0
2017-Oct-12 03:29N 70°04' E 020°30'0 0.0
2017-Oct-12 02:59N 70°04' E 020°30'0 0.0
2017-Oct-12 02:30N 70°04' E 020°30'0 0.0
2017-Oct-12 01:59N 70°04' E 020°30'0 0.0
2017-Oct-12 01:30N 70°04' E 020°30'0 0.0
2017-Oct-12 01:00N 70°04' E 020°30'0 0.0
2017-Oct-12 00:30N 70°04' E 020°30'0 0.0
2017-Oct-12 00:00N 70°04' E 020°30'0 0.0
2017-Oct-11 23:30N 70°04' E 020°30'0 0.0
2017-Oct-11 23:00N 70°04' E 020°30'0 0.0
2017-Oct-11 22:30N 70°04' E 020°30'0 0.0
2017-Oct-11 22:00N 70°04' E 020°30'0 0.0
2017-Oct-11 21:30N 70°04' E 020°30'0 0.0
2017-Oct-11 21:00N 70°04' E 020°30'0 0.0
2017-Oct-11 20:30N 70°04' E 020°30'0 0.0
2017-Oct-11 20:00N 70°04' E 020°30'0 0.0
2017-Oct-11 19:30N 70°04' E 020°30'0 0.0
2017-Oct-11 19:00N 70°04' E 020°30'0 0.0
2017-Oct-11 18:30N 70°04' E 020°30'0 0.0
2017-Oct-11 18:00N 70°04' E 020°30'0 0.0
2017-Oct-11 17:30N 70°04' E 020°30'0 0.0
2017-Oct-11 17:00N 70°04' E 020°30'0 0.0
2017-Oct-11 00:00N 70°04' E 020°30'0 0.0
2017-Oct-10 23:30N 70°04' E 020°30'0 0.0
2017-Oct-10 23:00N 70°04' E 020°30'0 0.0
2017-Oct-10 22:30N 70°04' E 020°30'0 0.0
2017-Oct-10 22:00N 70°04' E 020°30'0 0.0
2017-Oct-10 21:30N 70°04' E 020°30'0 0.0
2017-Oct-10 21:00N 70°04' E 020°30'0 0.0
2017-Oct-10 20:30N 70°04' E 020°30'0 0.0
2017-Oct-10 20:00N 70°04' E 020°30'0 0.0
2017-Oct-10 19:30N 70°04' E 020°30'0 0.0
2017-Oct-10 19:00N 70°04' E 020°30'0 0.0
2017-Oct-10 18:29N 70°04' E 020°30'3 6.5
2017-Oct-10 18:00N 70°01' E 020°30'4 8.1
2017-Oct-10 17:29N 69°57' E 020°28'4 8.2
2017-Oct-10 16:59N 69°52' E 020°26'3 4.2
2017-Oct-10 16:22N 69°50' E 020°26'0 0.6
2017-Oct-10 15:39N 69°50' E 020°27'0 1.1
2017-Oct-10 15:30N 69°50' E 020°27'0 0.7
2017-Oct-10 14:59N 69°51' E 020°27'3 0.7
2017-Oct-10 11:15N 69°48' E 020°25'0 0.6
2017-Oct-10 10:48N 69°48' E 020°24'0 0.5
2017-Oct-10 10:24N 69°48' E 020°24'0 0.5
2017-Oct-10 09:47N 69°49' E 020°24'0 0.2
2017-Oct-10 08:59N 69°49' E 020°24'0 0.6
2017-Oct-10 08:31N 69°49' E 020°24'0 0.6
2017-Oct-10 07:49N 69°49' E 020°25'0 0.7
2017-Oct-10 07:28N 69°50' E 020°25'2 3.7
2017-Oct-10 07:00N 69°51' E 020°25'0 0.6
2017-Oct-10 06:27N 69°52' E 020°25'0 0.4
2017-Oct-10 05:58N 69°52' E 020°25'0 0.3
2017-Oct-10 05:30N 69°52' E 020°25'0 0.4
2017-Oct-10 05:00N 69°52' E 020°25'0 0.6
2017-Oct-10 04:24N 69°51' E 020°25'0 0.3
2017-Oct-10 04:00N 69°51' E 020°25'1 2.6
2017-Oct-10 03:26N 69°50' E 020°25'1 0.5
2017-Oct-10 02:23N 69°50' E 020°26'  
Track history (hours):
 
Tides and Currents Weather Stations Pressure Air Temp Water Temp Dewpoint Dewpoint Depression Visibility Wind Speed Wind Dir Waves Ship Positions

Sara

Last reported at 2017-Oct-20 02:01 UTC. Time now 2017-Oct-20 14:33 UTC.
Position N 70°03' E 020°31'.

Length 11 m.

Type: Fishing. MMSI: 257182840.

Date/timePositionNaut miles runAvg speedWind from/ knotsBaromVisibWave heightAir tempDewpointWater temp
2017-Oct-20 02:01N 70°03' E 020°31'0 5.2
2017-Oct-20 02:00N 70°03' E 020°31'1 1.1
2017-Oct-20 01:28N 70°04' E 020°30'0 0.0
2017-Oct-20 00:58N 70°04' E 020°30'0 0.0
2017-Oct-20 00:28N 70°04' E 020°30'0 0.0
2017-Oct-19 23:55N 70°04' E 020°30'0 0.0
2017-Oct-19 23:28N 70°04' E 020°30'0 0.0
2017-Oct-19 22:58N 70°04' E 020°30'0 0.0
2017-Oct-19 22:28N 70°04' E 020°30'0 0.0
2017-Oct-19 21:58N 70°04' E 020°30'0 0.0
2017-Oct-19 21:28N 70°04' E 020°30'0 0.0
2017-Oct-19 20:58N 70°04' E 020°30'0 0.0
2017-Oct-19 20:28N 70°04' E 020°30'0 0.0
2017-Oct-19 19:55N 70°04' E 020°30'0 0.0
2017-Oct-19 19:28N 70°04' E 020°30'0 0.0
2017-Oct-19 18:58N 70°04' E 020°30'0 0.0
2017-Oct-19 18:28N 70°04' E 020°30'0 0.0
2017-Oct-19 17:58N 70°04' E 020°30'0 0.0
2017-Oct-19 17:28N 70°04' E 020°30'0 0.0
2017-Oct-19 16:58N 70°04' E 020°30'0 0.0
2017-Oct-19 16:28N 70°04' E 020°30'0 0.0
2017-Oct-19 15:58N 70°04' E 020°30'0 0.0
2017-Oct-19 15:28N 70°04' E 020°30'0 0.0
2017-Oct-19 14:58N 70°04' E 020°30'0 0.0
2017-Oct-19 14:28N 70°04' E 020°30'0 0.0
2017-Oct-19 13:58N 70°04' E 020°30'0 0.0
2017-Oct-19 13:28N 70°04' E 020°30'0 0.0
2017-Oct-19 12:58N 70°04' E 020°30'0 0.0
2017-Oct-19 12:28N 70°04' E 020°30'0 0.0
2017-Oct-19 11:58N 70°04' E 020°30'0 0.0
2017-Oct-19 11:28N 70°04' E 020°30'0 0.0
2017-Oct-19 10:58N 70°04' E 020°30'0 0.0
2017-Oct-19 10:28N 70°04' E 020°30'0 0.0
2017-Oct-19 09:58N 70°04' E 020°30'0 0.0
2017-Oct-19 09:28N 70°04' E 020°30'0 0.0
2017-Oct-19 08:58N 70°04' E 020°30'0 0.0
2017-Oct-19 08:28N 70°04' E 020°30'0 0.0
2017-Oct-19 07:58N 70°04' E 020°30'0 0.0
2017-Oct-19 07:28N 70°04' E 020°30'0 0.0
2017-Oct-19 06:59N 70°04' E 020°30'0 0.0
2017-Oct-19 06:28N 70°04' E 020°30'0 0.0
2017-Oct-19 05:58N 70°04' E 020°30'0 0.0
2017-Oct-19 05:28N 70°04' E 020°30'0 0.0
2017-Oct-19 04:58N 70°04' E 020°30'0 0.0
2017-Oct-19 04:28N 70°04' E 020°30'0 0.0
2017-Oct-19 03:58N 70°04' E 020°30'0 0.0
2017-Oct-19 03:28N 70°04' E 020°30'0 0.0
2017-Oct-19 02:58N 70°04' E 020°30'0 0.0
2017-Oct-19 02:28N 70°04' E 020°30'0 0.0
2017-Oct-19 01:58N 70°04' E 020°30'0 0.0
2017-Oct-19 01:28N 70°04' E 020°30'0 0.0
2017-Oct-19 00:58N 70°04' E 020°30'0 0.0
2017-Oct-19 00:28N 70°04' E 020°30'0 0.0
2017-Oct-18 23:58N 70°04' E 020°30'0 0.0
2017-Oct-18 23:28N 70°04' E 020°30'0 0.0
2017-Oct-18 22:58N 70°04' E 020°30'0 0.0
2017-Oct-18 22:28N 70°04' E 020°30'0 0.0
2017-Oct-18 21:58N 70°04' E 020°30'0 0.0
2017-Oct-18 21:28N 70°04' E 020°30'0 0.0
2017-Oct-18 20:58N 70°04' E 020°30'0 0.0
2017-Oct-18 20:28N 70°04' E 020°30'0 0.0
2017-Oct-18 19:55N 70°04' E 020°30'0 0.0
2017-Oct-18 19:28N 70°04' E 020°30'0 0.0
2017-Oct-18 18:58N 70°04' E 020°30'0 0.0
2017-Oct-18 18:28N 70°04' E 020°30'2 3.5
2017-Oct-18 17:59N 70°02' E 020°31'3 6.7
2017-Oct-18 17:30N 70°02' E 020°41'4 8.5
2017-Oct-18 17:00N 70°04' E 020°52'5 8.5
2017-Oct-18 16:26N 70°08' E 020°59'4 8.0
2017-Oct-18 15:59N 70°11' E 021°04'4 8.0
2017-Oct-18 15:27N 70°15' E 021°11'4 8.0
2017-Oct-18 14:59N 70°17' E 021°20'8 8.1
2017-Oct-18 14:00N 70°22' E 021°37'3 6.7
2017-Oct-18 13:29N 70°23' E 021°47'4 7.7
2017-Oct-18 13:00N 70°22' E 021°57'4 8.3
2017-Oct-18 12:30N 70°19' E 022°07'4 8.2
2017-Oct-18 12:00N 70°17' E 022°17'3 6.5
2017-Oct-18 11:28N 70°14' E 022°21'0 0.0
2017-Oct-18 10:58N 70°14' E 022°21'0 0.0
2017-Oct-18 10:28N 70°14' E 022°21'0 0.0
2017-Oct-18 10:00N 70°14' E 022°21'0 0.1
2017-Oct-18 08:42N 70°14' E 022°21'0 0.0
2017-Oct-18 01:12N 70°14' E 022°21'0 0.0
2017-Oct-17 20:48N 70°14' E 022°21'0 0.2
2017-Oct-17 20:29N 70°14' E 022°21'0 0.0
2017-Oct-17 16:57N 70°14' E 022°21'0 0.0
2017-Oct-17 16:18N 70°14' E 022°21'0 0.0
2017-Oct-17 15:04N 70°14' E 022°21'0 0.3
2017-Oct-17 14:57N 70°14' E 022°21'0 0.0
2017-Oct-17 12:59N 70°14' E 022°21'0 0.0
2017-Oct-17 11:00N 70°14' E 022°21'0 0.0
2017-Oct-17 10:30N 70°14' E 022°21'0 0.0
2017-Oct-17 10:00N 70°14' E 022°21'0 0.2
2017-Oct-17 09:28N 70°14' E 022°21'0 0.0
2017-Oct-17 08:58N 70°14' E 022°21'0 0.0
2017-Oct-17 08:28N 70°14' E 022°21'0 0.0
2017-Oct-17 07:58N 70°14' E 022°21'0 0.0
2017-Oct-17 07:29N 70°14' E 022°21'0 0.0
2017-Oct-17 06:58N 70°14' E 022°21'1 2.6
2017-Oct-17 06:30N 70°15' E 022°19'4 7.3
2017-Oct-17 06:00N 70°18' E 022°14'4 7.9
2017-Oct-17 05:29N 70°20' E 022°04'4 8.1
2017-Oct-17 05:00N 70°22' E 021°53'4 7.8
2017-Oct-17 04:30N 70°24' E 021°43'4 7.1
2017-Oct-17 04:00N 70°22' E 021°35'4 7.6
2017-Oct-17 03:30N 70°19' E 021°27'10 7.7
2017-Oct-17 02:08N 70°11' E 021°05'3 8.2
2017-Oct-17 01:50N 70°09' E 021°02'3 8.3
2017-Oct-17 01:26N 70°06' E 020°58'4 8.2
2017-Oct-17 01:00N 70°03' E 020°52'4 8.8
2017-Oct-17 00:30N 70°02' E 020°40'3 6.7
2017-Oct-17 00:00N 70°03' E 020°31'1 1.8
2017-Oct-16 23:28N 70°04' E 020°30'0 0.0
2017-Oct-16 22:58N 70°04' E 020°30'0 0.0
2017-Oct-16 22:28N 70°04' E 020°30'0 0.0
2017-Oct-16 21:58N 70°04' E 020°30'0 0.0
2017-Oct-16 21:28N 70°04' E 020°30'0 0.0
2017-Oct-16 20:58N 70°04' E 020°30'0 0.0
2017-Oct-16 20:28N 70°04' E 020°30'0 0.0
2017-Oct-16 19:58N 70°04' E 020°30'0 0.0
2017-Oct-16 19:28N 70°04' E 020°30'0 0.0
2017-Oct-16 18:58N 70°04' E 020°30'0 0.0
2017-Oct-16 18:28N 70°04' E 020°30'0 0.0
2017-Oct-16 17:58N 70°04' E 020°30'0 0.0
2017-Oct-16 17:28N 70°04' E 020°30'0 0.0
2017-Oct-16 16:58N 70°04' E 020°30'0 0.0
2017-Oct-16 16:28N 70°04' E 020°30'0 0.0
2017-Oct-16 15:58N 70°04' E 020°30'0 0.0
2017-Oct-16 15:28N 70°04' E 020°30'0 0.0
2017-Oct-16 14:58N 70°04' E 020°30'0 0.0
2017-Oct-16 13:58N 70°04' E 020°30'0 0.0
2017-Oct-16 13:28N 70°04' E 020°30'0 0.0
2017-Oct-16 12:58N 70°04' E 020°30'0 0.0
2017-Oct-16 12:28N 70°04' E 020°30'0 0.0
2017-Oct-16 11:58N 70°04' E 020°30'0 0.0
2017-Oct-16 11:28N 70°04' E 020°30'0 0.0
2017-Oct-16 10:59N 70°04' E 020°30'0 0.0
2017-Oct-16 10:28N 70°04' E 020°30'0 0.0
2017-Oct-16 09:58N 70°04' E 020°30'0 0.0
2017-Oct-16 09:29N 70°04' E 020°30'0 0.0
2017-Oct-16 08:58N 70°04' E 020°30'0 0.0
2017-Oct-16 08:28N 70°04' E 020°30'0 0.0
2017-Oct-16 07:58N 70°04' E 020°30'0 0.0
2017-Oct-16 07:29N 70°04' E 020°30'0 0.0
2017-Oct-16 06:59N 70°04' E 020°30'0 0.0
2017-Oct-16 06:29N 70°04' E 020°30'0 0.0
2017-Oct-16 05:59N 70°04' E 020°30'0 0.0
2017-Oct-16 05:29N 70°04' E 020°30'0 0.0
2017-Oct-16 04:59N 70°04' E 020°30'0 0.0
2017-Oct-16 04:29N 70°04' E 020°30'0 0.0
2017-Oct-16 03:59N 70°04' E 020°30'0 0.0
2017-Oct-16 03:29N 70°04' E 020°30'0 0.0
2017-Oct-16 02:59N 70°04' E 020°30'0 0.0
2017-Oct-16 02:29N 70°04' E 020°30'0 0.0
2017-Oct-16 01:59N 70°04' E 020°30'0 0.0
2017-Oct-16 01:26N 70°04' E 020°30'0 0.0
2017-Oct-16 00:59N 70°04' E 020°30'0 0.0
2017-Oct-16 00:29N 70°04' E 020°30'0 0.0
2017-Oct-15 23:59N 70°04' E 020°30'0 0.0
2017-Oct-15 23:29N 70°04' E 020°30'0 0.0
2017-Oct-15 22:59N 70°04' E 020°30'0 0.0
2017-Oct-15 22:29N 70°04' E 020°30'0 0.0
2017-Oct-15 21:59N 70°04' E 020°30'0 0.0
2017-Oct-15 21:29N 70°04' E 020°30'0 0.0
2017-Oct-15 20:59N 70°04' E 020°30'0 0.0
2017-Oct-15 20:29N 70°04' E 020°30'0 0.0
2017-Oct-15 19:59N 70°04' E 020°30'0 0.0
2017-Oct-15 19:29N 70°04' E 020°30'0 0.0
2017-Oct-15 18:59N 70°04' E 020°30'0 0.0
2017-Oct-15 18:29N 70°04' E 020°30'0 0.0
2017-Oct-15 17:59N 70°04' E 020°30'0 0.0
2017-Oct-15 17:29N 70°04' E 020°30'0 0.0
2017-Oct-15 16:59N 70°04' E 020°30'0 0.0
2017-Oct-15 16:29N 70°04' E 020°30'0 0.0
2017-Oct-15 15:59N 70°04' E 020°30'0 0.0
2017-Oct-15 15:29N 70°04' E 020°30'0 0.0
2017-Oct-15 14:59N 70°04' E 020°30'0 0.0
2017-Oct-15 13:59N 70°04' E 020°30'0 0.0
2017-Oct-15 13:26N 70°04' E 020°30'0 0.0
2017-Oct-15 12:59N 70°04' E 020°30'0 0.0
2017-Oct-15 12:29N 70°04' E 020°30'0 0.0
2017-Oct-15 11:59N 70°04' E 020°30'0 0.0
2017-Oct-15 11:29N 70°04' E 020°30'0 0.0
2017-Oct-15 10:59N 70°04' E 020°30'0 0.0
2017-Oct-15 10:29N 70°04' E 020°30'0 0.0
2017-Oct-15 09:59N 70°04' E 020°30'0 0.0
2017-Oct-15 09:29N 70°04' E 020°30'0 0.0
2017-Oct-15 08:59N 70°04' E 020°30'0 0.0
2017-Oct-15 08:29N 70°04' E 020°30'0 0.0
2017-Oct-15 07:59N 70°04' E 020°30'0 0.0
2017-Oct-15 07:29N 70°04' E 020°30'0 0.0
2017-Oct-15 06:59N 70°04' E 020°30'0 0.0
2017-Oct-15 06:29N 70°04' E 020°30'0 0.0
2017-Oct-15 05:59N 70°04' E 020°30'0 0.0
2017-Oct-15 05:26N 70°04' E 020°30'0 0.0
2017-Oct-15 04:59N 70°04' E 020°30'0 0.0
2017-Oct-15 04:29N 70°04' E 020°30'0 0.0
2017-Oct-15 03:56N 70°04' E 020°30'0 0.0
2017-Oct-15 03:29N 70°04' E 020°30'0 0.0
2017-Oct-15 02:59N 70°04' E 020°30'0 0.0
2017-Oct-15 02:26N 70°04' E 020°30'0 0.0
2017-Oct-15 01:59N 70°04' E 020°30'0 0.0
2017-Oct-15 01:29N 70°04' E 020°30'0 0.0
2017-Oct-15 00:59N 70°04' E 020°30'0 0.0
2017-Oct-15 00:29N 70°04' E 020°30'0 0.0
2017-Oct-14 23:59N 70°04' E 020°30'0 0.0
2017-Oct-14 23:29N 70°04' E 020°30'0 0.0
2017-Oct-14 22:59N 70°04' E 020°30'0 0.0
2017-Oct-14 22:26N 70°04' E 020°30'0 0.0
2017-Oct-14 21:59N 70°04' E 020°30'0 0.0
2017-Oct-14 21:29N 70°04' E 020°30'0 0.0
2017-Oct-14 20:59N 70°04' E 020°30'0 0.0
2017-Oct-14 20:29N 70°04' E 020°30'0 0.0
2017-Oct-14 19:59N 70°04' E 020°30'0 0.0
2017-Oct-14 19:29N 70°04' E 020°30'0 0.0
2017-Oct-14 18:59N 70°04' E 020°30'0 0.0
2017-Oct-14 18:29N 70°04' E 020°30'0 0.0
2017-Oct-14 17:56N 70°04' E 020°30'0 0.0
2017-Oct-14 17:29N 70°04' E 020°30'0 0.0
2017-Oct-14 16:59N 70°04' E 020°30'0 0.0
2017-Oct-14 16:29N 70°04' E 020°30'0 0.0
2017-Oct-14 15:59N 70°04' E 020°30'0 0.0
2017-Oct-14 15:29N 70°04' E 020°30'0 0.0
2017-Oct-14 14:59N 70°04' E 020°30'0 0.0
2017-Oct-14 14:29N 70°04' E 020°30'0 0.0
2017-Oct-14 13:59N 70°04' E 020°30'0 0.0
2017-Oct-14 13:29N 70°04' E 020°30'0 0.0
2017-Oct-14 12:59N 70°04' E 020°30'0 0.0
2017-Oct-14 12:29N 70°04' E 020°30'0 0.0
2017-Oct-14 11:59N 70°04' E 020°30'0 0.0
2017-Oct-14 11:29N 70°04' E 020°30'0 0.0
2017-Oct-14 10:59N 70°04' E 020°30'0 0.0
2017-Oct-14 10:29N 70°04' E 020°30'0 0.0
2017-Oct-14 09:59N 70°04' E 020°30'0 0.0
2017-Oct-14 09:29N 70°04' E 020°30'0 0.0
2017-Oct-14 08:59N 70°04' E 020°30'0 0.0
2017-Oct-14 08:29N 70°04' E 020°30'0 0.0
2017-Oct-14 07:59N 70°04' E 020°30'0 0.0
2017-Oct-14 07:29N 70°04' E 020°30'0 0.0
2017-Oct-14 06:59N 70°04' E 020°30'0 0.0
2017-Oct-14 06:29N 70°04' E 020°30'0 0.0
2017-Oct-14 05:59N 70°04' E 020°30'0 0.0
2017-Oct-14 05:29N 70°04' E 020°30'0 0.0
2017-Oct-14 04:59N 70°04' E 020°30'0 0.0
2017-Oct-14 04:29N 70°04' E 020°30'0 0.0
2017-Oct-14 03:59N 70°04' E 020°30'0 0.0
2017-Oct-14 03:29N 70°04' E 020°30'0 0.0
2017-Oct-14 02:59N 70°04' E 020°30'0 0.0
2017-Oct-14 02:26N 70°04' E 020°30'0 0.0
2017-Oct-14 01:59N 70°04' E 020°30'0 0.0
2017-Oct-14 01:29N 70°04' E 020°30'0 0.0
2017-Oct-14 00:59N 70°04' E 020°30'0 0.0
2017-Oct-14 00:29N 70°04' E 020°30'0 0.0
2017-Oct-13 23:59N 70°04' E 020°30'0 0.0
2017-Oct-13 23:29N 70°04' E 020°30'0 0.0
2017-Oct-13 22:59N 70°04' E 020°30'0 0.0
2017-Oct-13 22:29N 70°04' E 020°30'0 0.0
2017-Oct-13 21:59N 70°04' E 020°30'0 0.0
2017-Oct-13 21:29N 70°04' E 020°30'0 0.0
2017-Oct-13 20:59N 70°04' E 020°30'0 0.0
2017-Oct-13 20:29N 70°04' E 020°30'0 0.0
2017-Oct-13 19:59N 70°04' E 020°30'0 0.0
2017-Oct-13 19:29N 70°04' E 020°30'0 0.0
2017-Oct-13 18:59N 70°04' E 020°30'0 0.0
2017-Oct-13 18:29N 70°04' E 020°30'0 0.0
2017-Oct-13 17:59N 70°04' E 020°30'0 0.0
2017-Oct-13 17:29N 70°04' E 020°30'0 0.0
2017-Oct-13 16:59N 70°04' E 020°30'0 0.0
2017-Oct-13 16:29N 70°04' E 020°30'0 0.0
2017-Oct-13 15:59N 70°04' E 020°30'0 0.0
2017-Oct-13 15:26N 70°04' E 020°30'0 0.0
2017-Oct-13 14:59N 70°04' E 020°30'0 0.0
2017-Oct-13 14:29N 70°04' E 020°30'0 0.0
2017-Oct-13 13:59N 70°04' E 020°30'0 0.0
2017-Oct-13 13:29N 70°04' E 020°30'0 0.0
2017-Oct-13 12:59N 70°04' E 020°30'0 0.0
2017-Oct-13 12:29N 70°04' E 020°30'0 0.0
2017-Oct-13 11:59N 70°04' E 020°30'0 0.0
2017-Oct-13 11:29N 70°04' E 020°30'0 0.0
2017-Oct-13 10:59N 70°04' E 020°30'0 0.0
2017-Oct-13 10:29N 70°04' E 020°30'0 0.0
2017-Oct-13 09:59N 70°04' E 020°30'0 0.0
2017-Oct-13 09:26N 70°04' E 020°30'0 0.0
2017-Oct-13 08:56N 70°04' E 020°30'0 0.0
2017-Oct-13 08:29N 70°04' E 020°30'0 0.0
2017-Oct-13 07:59N 70°04' E 020°30'0 0.0
2017-Oct-12 16:24N 70°04' E 020°30'0 0.0
2017-Oct-12 15:59N 70°04' E 020°30'0 0.0
2017-Oct-12 15:29N 70°04' E 020°30'0 0.0
2017-Oct-12 14:59N 70°04' E 020°30'0 0.0
2017-Oct-12 14:29N 70°04' E 020°30'0 0.0
2017-Oct-12 13:59N 70°04' E 020°30'0 0.0
2017-Oct-12 13:29N 70°04' E 020°30'0 0.0
2017-Oct-12 12:59N 70°04' E 020°30'0 0.0
2017-Oct-12 12:29N 70°04' E 020°30'0 0.0
2017-Oct-12 11:59N 70°04' E 020°30'0 0.0
2017-Oct-12 11:29N 70°04' E 020°30'0 0.0
2017-Oct-12 10:59N 70°04' E 020°30'0 0.0
2017-Oct-12 10:29N 70°04' E 020°30'0 0.0
2017-Oct-12 10:00N 70°04' E 020°30'3 5.2
2017-Oct-12 09:29N 70°02' E 020°24'4 7.3
2017-Oct-12 09:00N 70°02' E 020°13'4 7.3
2017-Oct-12 08:30N 70°04' E 020°04'2 2.8
2017-Oct-12 07:58N 70°04' E 019°60'0 0.0
2017-Oct-12 07:28N 70°04' E 019°60'0 0.0
2017-Oct-12 06:58N 70°04' E 019°60'1 1.3
2017-Oct-12 06:30N 70°04' E 020°01'4 8.0
2017-Oct-12 06:00N 70°03' E 020°13'4 7.9
2017-Oct-12 05:30N 70°02' E 020°24'2 4.9
2017-Oct-12 05:00N 70°04' E 020°30'0 0.5
2017-Oct-12 04:29N 70°04' E 020°30'0 0.0
2017-Oct-12 03:59N 70°04' E 020°30'0 0.0
2017-Oct-12 03:29N 70°04' E 020°30'0 0.0
2017-Oct-12 02:59N 70°04' E 020°30'0 0.0
2017-Oct-12 02:30N 70°04' E 020°30'0 0.0
2017-Oct-12 01:59N 70°04' E 020°30'0 0.0
2017-Oct-12 01:30N 70°04' E 020°30'0 0.0
2017-Oct-12 01:00N 70°04' E 020°30'0 0.0
2017-Oct-12 00:30N 70°04' E 020°30'0 0.0
2017-Oct-12 00:00N 70°04' E 020°30'0 0.0
2017-Oct-11 23:30N 70°04' E 020°30'0 0.0
2017-Oct-11 23:00N 70°04' E 020°30'0 0.0
2017-Oct-11 22:30N 70°04' E 020°30'0 0.0
2017-Oct-11 22:00N 70°04' E 020°30'0 0.0
2017-Oct-11 21:30N 70°04' E 020°30'0 0.0
2017-Oct-11 21:00N 70°04' E 020°30'0 0.0
2017-Oct-11 20:30N 70°04' E 020°30'0 0.0
2017-Oct-11 20:00N 70°04' E 020°30'0 0.0
2017-Oct-11 19:30N 70°04' E 020°30'0 0.0
2017-Oct-11 19:00N 70°04' E 020°30'0 0.0
2017-Oct-11 18:30N 70°04' E 020°30'0 0.0
2017-Oct-11 18:00N 70°04' E 020°30'0 0.0
2017-Oct-11 17:30N 70°04' E 020°30'0 0.0
2017-Oct-11 17:00N 70°04' E 020°30'0 0.0
2017-Oct-11 00:00N 70°04' E 020°30'0 0.0
2017-Oct-10 23:30N 70°04' E 020°30'0 0.0
2017-Oct-10 23:00N 70°04' E 020°30'0 0.0
2017-Oct-10 22:30N 70°04' E 020°30'0 0.0
2017-Oct-10 22:00N 70°04' E 020°30'0 0.0
2017-Oct-10 21:30N 70°04' E 020°30'0 0.0
2017-Oct-10 21:00N 70°04' E 020°30'0 0.0
2017-Oct-10 20:30N 70°04' E 020°30'0 0.0
2017-Oct-10 20:00N 70°04' E 020°30'0 0.0
2017-Oct-10 19:30N 70°04' E 020°30'0 0.0
2017-Oct-10 19:00N 70°04' E 020°30'0 0.0
2017-Oct-10 18:29N 70°04' E 020°30'3 6.5
2017-Oct-10 18:00N 70°01' E 020°30'4 8.1
2017-Oct-10 17:29N 69°57' E 020°28'4 8.2
2017-Oct-10 16:59N 69°52' E 020°26'3 4.2
2017-Oct-10 16:22N 69°50' E 020°26'0 0.6
2017-Oct-10 15:39N 69°50' E 020°27'0 1.1
2017-Oct-10 15:30N 69°50' E 020°27'0 0.7
2017-Oct-10 14:59N 69°51' E 020°27'3 0.7
2017-Oct-10 11:15N 69°48' E 020°25'0 0.6
2017-Oct-10 10:48N 69°48' E 020°24'0 0.5
2017-Oct-10 10:24N 69°48' E 020°24'0 0.5
2017-Oct-10 09:47N 69°49' E 020°24'0 0.2
2017-Oct-10 08:59N 69°49' E 020°24'0 0.6
2017-Oct-10 08:31N 69°49' E 020°24'0 0.6
2017-Oct-10 07:49N 69°49' E 020°25'0 0.7
2017-Oct-10 07:28N 69°50' E 020°25'2 3.7
2017-Oct-10 07:00N 69°51' E 020°25'0 0.6
2017-Oct-10 06:27N 69°52' E 020°25'0 0.4
2017-Oct-10 05:58N 69°52' E 020°25'0 0.3
2017-Oct-10 05:30N 69°52' E 020°25'0 0.4
2017-Oct-10 05:00N 69°52' E 020°25'0 0.6
2017-Oct-10 04:24N 69°51' E 020°25'0 0.3
2017-Oct-10 04:00N 69°51' E 020°25'1 2.6
2017-Oct-10 03:26N 69°50' E 020°25'1 0.5
2017-Oct-10 02:23N 69°50' E 020°26'  

Dump ship's entire track history